| time (UTC) | temp F | wind direction | speed knots | gust knots | rain 1hr in | rain 24hr in | rain mn in | humidity % | barometer mb |
| 20260505041558 | 74 | 111 | 1.7 | 3.5 | 0.00 | 0.00 | 0.00 | 86 | 1016.2 |
| 20260505040054 | 74 | 107 | 2.6 | 5.2 | 0.00 | 0.00 | 0.00 | 86 | 1016.1 |
| 20260505034543 | 74 | 125 | 3.5 | 6.1 | 0.00 | 0.00 | 0.00 | 86 | 1016.3 |
| 20260505033046 | 75 | 110 | 1.7 | 3.5 | 0.00 | 0.00 | 0.00 | 85 | 1016.5 |
| 20260505031547 | 75 | 132 | 1.7 | 3.5 | 0.00 | 0.00 | 0.00 | 85 | 1016.5 |
| 20260505030043 | 76 | 115 | 3.5 | 6.1 | 0.00 | 0.00 | 0.00 | 85 | 1016.7 |
| 20260505024541 | 76 | 117 | 2.6 | 5.2 | 0.00 | 0.00 | 0.00 | 85 | 1016.6 |
| 20260505023044 | 76 | 111 | 2.6 | 5.2 | 0.00 | 0.00 | 0.00 | 86 | 1016.5 |
| 20260505021541 | 76 | 113 | 2.6 | 6.1 | 0.00 | 0.00 | 0.00 | 85 | 1016.4 |
| 20260505020037 | 77 | 141 | 0.9 | 3.5 | 0.00 | 0.00 | 0.00 | 84 | 1016.2 |
| 20260505014549 | 77 | 117 | 2.6 | 6.1 | 0.00 | 0.00 | 0.00 | 84 | 1016.0 |
| 20260505013036 | 78 | 104 | 0.9 | 3.5 | 0.00 | 0.00 | 0.00 | 85 | 1016.1 |
| 20260505011534 | 79 | 71 | 2.6 | 4.3 | 0.00 | 0.00 | 0.00 | 86 | 1015.9 |
| 20260505010034 | 79 | 65 | 3.5 | 7.0 | 0.00 | 0.00 | 0.00 | 86 | 1015.9 |
| 20260505004537 | 80 | 48 | 1.7 | 3.5 | 0.00 | 0.00 | 0.00 | 82 | 1015.6 |
| 20260505003032 | 81 | 90 | 1.7 | 3.5 | 0.00 | 0.00 | 0.00 | 81 | 1015.5 |
| 20260505001532 | 81 | 76 | 1.7 | 3.5 | 0.00 | 0.00 | 0.00 | 81 | 1015.3 |
| 20260505000035 | 81 | 59 | 1.7 | 5.2 | 0.00 | 0.00 | 0.00 | 81 | 1015.2 |
| 20260504234530 | 81 | 115 | 1.7 | 2.6 | 0.00 | 0.00 | 0.00 | 80 | 1015.2 |
| 20260504233032 | 82 | 188 | 2.6 | 7.0 | 0.00 | 0.00 | 0.00 | 79 | 1015.0 |
| 20260504231529 | 82 | 154 | 3.5 | 7.0 | 0.00 | 0.00 | 0.00 | 78 | 1014.9 |
| 20260504230029 | 83 | 142 | 5.2 | 9.6 | 0.00 | 0.00 | 0.00 | 77 | 1014.8 |
| 20260504224529 | 83 | 156 | 7.8 | 13.0 | 0.00 | 0.00 | 0.00 | 76 | 1014.7 |
| 20260504223027 | 83 | 189 | 6.1 | 13.0 | 0.00 | 0.00 | 0.00 | 76 | 1014.6 |
| 20260504221529 | 84 | 158 | 7.0 | 12.2 | 0.00 | 0.00 | 0.00 | 75 | 1014.5 |
| 20260504220025 | 84 | 164 | 5.2 | 15.6 | 0.00 | 0.00 | 0.00 | 74 | 1014.2 |
| 20260504214523 | 85 | 229 | 3.5 | 9.6 | 0.00 | 0.00 | 0.00 | 74 | 1014.1 |
| 20260504213044 | 85 | 157 | 4.3 | 13.9 | 0.00 | 0.00 | 0.00 | 73 | 1014.0 |
| 20260504211522 | 85 | 161 | 7.0 | 10.4 | 0.00 | 0.00 | 0.00 | 71 | 1014.0 |
| 20260504210026 | 85 | 238 | 7.0 | 12.2 | 0.00 | 0.00 | 0.00 | 71 | 1014.0 |
| 20260504204522 | 85 | 179 | 6.1 | 15.6 | 0.00 | 0.00 | 0.00 | 70 | 1014.0 |
| 20260504203020 | 86 | 189 | 7.0 | 15.6 | 0.00 | 0.00 | 0.00 | 70 | 1014.0 |
| 20260504201525 | 86 | 154 | 7.0 | 14.8 | 0.00 | 0.00 | 0.00 | 70 | 1013.9 |
| 20260504200019 | 86 | 117 | 5.2 | 16.5 | 0.00 | 0.00 | 0.00 | 70 | 1013.9 |
| 20260504194520 | 86 | 175 | 8.7 | 17.4 | 0.00 | 0.00 | 0.00 | 69 | 1014.0 |
| 20260504193017 | 87 | 133 | 6.1 | 13.0 | 0.00 | 0.00 | 0.00 | 67 | 1014.0 |
| 20260504191518 | 87 | 186 | 7.8 | 13.9 | 0.00 | 0.00 | 0.00 | 68 | 1014.0 |
| 20260504190023 | 87 | 163 | 7.8 | 18.2 | 0.00 | 0.00 | 0.00 | 67 | 1014.1 |
| 20260504184515 | 87 | 146 | 11.3 | 18.2 | 0.00 | 0.00 | 0.00 | 65 | 1014.2 |
| 20260504183020 | 88 | 163 | 8.7 | 14.8 | 0.00 | 0.00 | 0.00 | 65 | 1014.3 |
| 20260504181511 | 88 | 241 | 9.6 | 17.4 | 0.00 | 0.00 | 0.00 | 64 | 1014.3 |
| 20260504180011 | 88 | 160 | 4.3 | 13.9 | 0.00 | 0.00 | 0.00 | 62 | 1014.5 |
| 20260504174509 | 88 | 171 | 8.7 | 19.1 | 0.00 | 0.00 | 0.00 | 60 | 1014.6 |
| 20260504173015 | 87 | 144 | 12.2 | 21.7 | 0.00 | 0.00 | 0.00 | 58 | 1014.7 |
| 20260504171510 | 87 | 163 | 11.3 | 21.7 | 0.00 | 0.00 | 0.00 | 57 | 1015.1 |
| 20260504100105 | 71 | 150 | 3.5 | 7.8 | 0.00 | 0.00 | 0.00 | 86 | 1015.6 |
| 20260504090118 | 72 | 107 | 0.9 | 6.1 | 0.00 | 0.00 | 0.00 | 84 | 1015.6 |
| 20260504081553 | 71 | 132 | 2.6 | 4.3 | 0.00 | 0.00 | 0.00 | 86 | 1015.0 |